Greenville Downtown, SC

7:26 AM EDT on April 30, 2017 (GMT -0400)
Greenville Downtown

Weather History for KGMU - April, 2012

Change the Weather History Date:

Wednesday, April 25, 2012

  Actual Average Record
Temperature  
Mean Temperature 64 °F -  
Max Temperature 78 °F 70 °F 87 °F (2006)
Min Temperature 50 °F 51 °F 36 °F (2005)
Degree Days  
Heating Degree Days 1    
Growing Degree Days 14 (Base 50)    
Moisture  
Dew Point 48 °F    
Average Humidity 58    
Maximum Humidity 83    
Minimum Humidity 42    
Precipitation  
Precipitation 0.01 in - - ()
Sea Level Pressure  
Sea Level Pressure 29.89 in    
Wind  
Wind Speed 3 mph (SSW)    
Max Wind Speed 12 mph    
Max Gust Speed 20 mph    
Visibility 10 miles    
Events Rain    
Averages and records for this station are not official NWS values.
T = Trace of Precipitation, MM = Missing Value Source: NWS Daily Summary

Daily Weather History Graph

Daily Weather History Graph

Search for Another Location

Airport or City:

Trip Planner

Search our weather history database for the weather conditions in past years. The results will help you decide how hot, cold, wet, or windy it might be!

Date:

Astronomy

Apr. 25, 2012 Rise Set
Actual Time 6:44 AM EDT 8:10 PM EDT
Civil Twilight 6:18 AM EDT 8:36 PM EDT
Nautical Twilight 5:46 AM EDT 9:08 PM EDT
Astronomical Twilight 5:13 AM EDT 9:42 PM EDT
Moon 9:34 AM EDT (4/25) No Moon Set
Length of Visible Light 14h 18m
Length of Day
13h 25m
Waxing Crescent, 16% of the Moon is Illuminated
Apr 25
Waxing Crescent
Apr 29
First Quarter
May 5
Full
May 12
Last Quarter
May 20
New

Hourly Weather History & Observations

Time (EDT) Temp. Dew Point Humidity Pressure Visibility Wind Dir Wind Speed Gust Speed Precip Events Conditions
12:53 AM 53.1 °F 39.9 °F 61% 29.88 in 10.0 mi Calm Calm - N/A   Scattered Clouds
1:53 AM 53.1 °F 41.0 °F 64% 29.87 in 10.0 mi Calm Calm - N/A   Mostly Cloudy
2:53 AM 52.0 °F 41.0 °F 66% 29.88 in 10.0 mi Calm Calm - N/A   Mostly Cloudy
3:53 AM 52.0 °F 41.0 °F 66% 29.88 in 10.0 mi Calm Calm - N/A   Scattered Clouds
5:53 AM 51.1 °F 44.1 °F 77% 29.89 in 10.0 mi South 4.6 mph - N/A   Mostly Cloudy
6:53 AM 51.1 °F 43.0 °F 74% 29.91 in 10.0 mi Calm Calm - N/A   Scattered Clouds
7:53 AM 50.0 °F 45.0 °F 83% 29.93 in 10.0 mi Calm Calm - N/A   Scattered Clouds
8:53 AM 55.0 °F 42.1 °F 62% 29.94 in 10.0 mi Calm Calm - N/A   Clear
9:53 AM 57.0 °F 43.0 °F 59% 29.95 in 10.0 mi Variable 4.6 mph - N/A   Clear
10:53 AM 61.0 °F 44.1 °F 54% 29.95 in 10.0 mi NE 3.5 mph - N/A   Clear
11:53 AM 64.0 °F 45.0 °F 50% 29.95 in 10.0 mi Variable 4.6 mph - N/A   Clear
12:53 PM 69.1 °F 46.9 °F 45% 29.93 in 10.0 mi Variable 6.9 mph - N/A   Clear
1:53 PM 70.0 °F 46.9 °F 44% 29.92 in 10.0 mi Variable 3.5 mph - N/A   Clear
3:53 PM 73.9 °F 50.0 °F 43% 29.89 in 10.0 mi SW 9.2 mph - N/A   Clear
4:53 PM 75.9 °F 52.0 °F 43% 29.87 in 10.0 mi SSW 8.1 mph - N/A   Clear
5:53 PM 78.1 °F 53.1 °F 42% 29.85 in 10.0 mi SSW 11.5 mph 19.6 mph N/A   Clear
6:53 PM 77.0 °F 54.0 °F 45% 29.85 in 10.0 mi SW 11.5 mph - N/A   Clear
7:53 PM 75.0 °F 57.0 °F 53% 29.84 in 9.0 mi South 8.1 mph - 0.00 in Rain Light Rain
8:53 PM 73.0 °F 57.0 °F 57% 29.88 in 10.0 mi Calm Calm - 0.01 in   Clear
9:53 PM 71.1 °F 57.9 °F 63% 29.88 in 10.0 mi SW 4.6 mph - 0.00 in   Scattered Clouds
10:53 PM 70.0 °F 57.0 °F 63% 29.87 in 10.0 mi South 3.5 mph - N/A   Partly Cloudy
11:53 PM 69.1 °F 57.9 °F 68% 29.88 in 10.0 mi SW 6.9 mph - N/A   Partly Cloudy